weather.gov     
National Weather Service

Other Surface Observations
NWS Homepage
This page is being discontinued on March 12, 2014.
The same data is available at this site. Please update your bookmarks.
Thank you, and we apologize for the inconvenience.
Please send an email to SR-SRH.Webmaster@noaa.gov with any concerns.


Current Version
Previous Version:    01  02  03  04  05  06  07  08  09  10  11  12  13  14  15  16  17  18  19  20  21  22  23  24  25  26  27  28  29  30  
   31  32  33  34  35  36  37  38  39  40  41  42  43  44  45  46  47  48  49  50  51  52  53  54  55  56  57  58  59  60  
[Printable]
387
SXUS52 KCHS 221325
OSOCHS

MARINE OBSERVATIONS
NATIONAL WEATHER SERVICE CHARLESTON SC
900 AM EDT TUE JUL 22 2014

...DOWNTOWN CHARLESTON AND HARBOR...

CITY           SKY/WX    TMP DP  RH WIND       PRES   REMARKS
WATERFRONT PRK   N/A     81 N/A N/A N8          N/A
FORT JOHNSON   NOT AVBL

...LAKE MOULTRIE...

CITY           SKY/WX    TMP DP  RH WIND       PRES   REMARKS
PINOPOLIS        N/A     79  75  89 NE3       30.05R

...LAKE AND SUPPLEMENTAL COASTAL OBSERVATIONS...

STATION/POSITION TIME  TEMP    WIND        PRES    WAVE   SWELL
                       AIR SEA DIR/SP/G            HT/PER HT/PER/DIR
                 (UTC) (F)     (DEG/KT/KT) (MB)    (FT/S) (FT/S/D)
FORT PULASKI     1300   75     290/  6/  7 1019.7R
SAPELO ISLAND    1300   75     350/  5     1020.0R
UPR LAKE MARION  NOT AVBL
WINYAH BAY       1300   77      60/  2     1019.0S
LAKE MURRAY      1300   74      30/  1/  3 1020.3S
ACE BASIN NERRS  1300   76      10/  1     1019.0S


...C-MAN AND BUOY OBSERVATIONS...

STATION/POSITION TIME  TEMP    WIND        PRES    WAVE   SWELL
                       AIR SEA DIR/SP/G            HT/PER HT/PER/DIR
                 (UTC) (F)     (DEG/KT/KT) (MB)    (FT/S) (FT/S/D)
BUOY 41004       1300   81 82  180/  8/ 14 1018.4R   3/ 7   3/ 7
BUOY 41008       1300   81 83  320/  6/  8 1019.1R   2/ 8   2/110/ 8
FOLLY BEACH CMAN 1300   78     300/  5/  7 1019.6R
CAPERS NS BUOY   1200   78      10/  8/ 10   N/A
FRIPP NS BUOY    NOT AVBL
5E ST. MARYS GA  1300      83                N/A     2/ 8
FRYING PAN BUOY  NOT AVBL
BUOY 41025       1300          VRB 12/ 16  1020.4F   3/ 8   2/130/ 8
CAPE LOOKOUT NC  1300   76     130/  6/  6 1020.1F
BUOY 41002       1154   81 82  190/ 12/ 14 1021.8R   4/ 7   2/140/ 7
BUOY 41010       1300   83 83  150/ 14/ 17 1018.7R   4/ 5   2/110/ 8
BUOY 41012       NOT AVBL
ST AUGUSTINE FL  1300   79     360/  6/  7 1019.4R


$$




U.S. Dept. of Commerce
NOAA National Weather Service
1325 East West Highway
Silver Spring, MD 20910
E-mail: w-nws.webmaster@noaa.gov
Page last modified: May 16, 2007
NATIONAL WEATHER SERVICE: for Safety, for Work, for Fun - FOR LIFE